Indianapolis, IN

7:10 PM EDT on September 16, 2019 (GMT -0400)
Indianapolis International

Weather History for KIND - May, 2019

Change the Weather History Date:

Wednesday, May 15, 2019

  Actual Average Record
Temperature  
Mean Temperature 61 °F 62 °F  
Max Temperature 72 °F 72 °F 88 °F (1988)
Min Temperature 50 °F 52 °F 35 °F (1973)
Degree Days  
Heating Degree Days 4 5  
Month to date heating degree days 104 91  
Since 1 July heating degree days 5355 5313  
Cooling Degree Days 0 2  
Month to date cooling degree days 3 20  
Year to date cooling degree days 4 35  
Growing Degree Days 11 (Base 50)    
Moisture  
Dew Point 49 °F    
Average Humidity 66    
Maximum Humidity 83    
Minimum Humidity 49    
Precipitation  
Precipitation 0.00 in 0.16 in 1.97 in (1968)
Month to date precipitation 1.34 2.44  
Year to date precipitation 18.82 14.79  
Snow  
Snow 0.00 in 0.00 in 0.00 in ()
Month to date snowfall 0.0 0.0  
Since 1 July snowfall 19.4 25.9  
Snow Depth 0.00 in    
Sea Level Pressure  
Sea Level Pressure 29.98 in    
Wind  
Wind Speed 6 mph (SSW)    
Max Wind Speed 14 mph    
Max Gust Speed 18 mph    
Visibility 10 miles    
Events      
T = Trace of Precipitation, MM = Missing Value Source: NWS Daily Summary

Daily Weather History Graph

Daily Weather History Graph

Search for Another Location

Airport or City:

Astronomy

May. 15, 2019 Rise Set
Actual Time 6:30 AM EDT 8:52 PM EDT
Civil Twilight 6:00 AM EDT 9:23 PM EDT
Nautical Twilight 5:22 AM EDT 10:01 PM EDT
Astronomical Twilight 4:41 AM EDT 10:42 PM EDT
Moon 5:23 PM EDT (5/15) 4:55 AM EDT (5/15)
Length of Visible Light 15h 22m
Length of Day
14h 21m
Waxing Gibbous, 87% of the Moon is Illuminated
May 15
Waxing Gibbous
May 18
Full
May 26
Last Quarter
Jun 3
New
Jun 10
First Quarter

Hourly Weather History & Observations

Time (EDT) Temp. Dew Point Humidity Pressure Visibility Wind Dir Wind Speed Gust Speed Precip Events Conditions
12:54 AM 52.0 °F 44.1 °F 74% 30.01 in 10.0 mi West 4.6 mph - N/A   Scattered Clouds
1:54 AM 53.1 °F 45.0 °F 74% 30.01 in 10.0 mi NE 3.5 mph - N/A   Mostly Cloudy
2:54 AM 53.1 °F 46.0 °F 77% 30.00 in 10.0 mi Calm Calm - N/A   Mostly Cloudy
3:54 AM 50.0 °F 45.0 °F 83% 29.99 in 10.0 mi SSW 3.5 mph - N/A   Mostly Cloudy
4:54 AM 53.1 °F 45.0 °F 74% 29.98 in 10.0 mi East 4.6 mph - N/A   Mostly Cloudy
5:54 AM 53.1 °F 46.0 °F 77% 29.98 in 10.0 mi SE 3.5 mph - N/A   Overcast
6:54 AM 52.0 °F 46.0 °F 80% 29.98 in 10.0 mi SSE 3.5 mph - N/A   Mostly Cloudy
7:54 AM 55.0 °F 48.0 °F 77% 30.00 in 10.0 mi South 3.5 mph - N/A   Mostly Cloudy
8:54 AM 55.9 °F 48.0 °F 75% 30.01 in 10.0 mi SW 4.6 mph - N/A   Overcast
9:54 AM 60.1 °F 50.0 °F 69% 30.02 in 10.0 mi WSW 3.5 mph - N/A   Mostly Cloudy
10:54 AM 64.0 °F 46.9 °F 54% 30.01 in 10.0 mi SSW 11.5 mph - N/A   Scattered Clouds
11:54 AM 64.9 °F 48.9 °F 56% 30.01 in 10.0 mi WSW 11.5 mph - N/A   Mostly Cloudy
12:54 PM 66.0 °F 48.9 °F 54% 30.01 in 10.0 mi South 6.9 mph - N/A   Mostly Cloudy
1:54 PM 69.1 °F 50.0 °F 51% 29.99 in 10.0 mi WSW 11.5 mph - N/A   Scattered Clouds
2:54 PM 69.1 °F 52.0 °F 54% 29.98 in 10.0 mi SSW 8.1 mph - N/A   Mostly Cloudy
3:54 PM 70.0 °F 51.1 °F 51% 29.97 in 10.0 mi SW 5.8 mph - N/A   Mostly Cloudy
4:54 PM 70.0 °F 50.0 °F 49% 29.96 in 10.0 mi Calm Calm - N/A   Mostly Cloudy
5:54 PM 71.1 °F 51.1 °F 49% 29.96 in 10.0 mi West 6.9 mph - N/A   Mostly Cloudy
6:54 PM 69.1 °F 52.0 °F 54% 29.95 in 10.0 mi WSW 6.9 mph - N/A   Mostly Cloudy
7:54 PM 66.9 °F 52.0 °F 59% 29.94 in 10.0 mi SSW 8.1 mph - N/A   Mostly Cloudy
8:54 PM 64.0 °F 52.0 °F 65% 29.96 in 10.0 mi SSW 5.8 mph - N/A   Mostly Cloudy
9:54 PM 61.0 °F 52.0 °F 72% 29.96 in 10.0 mi SSW 8.1 mph - N/A   Scattered Clouds
10:54 PM 60.1 °F 53.1 °F 78% 29.98 in 10.0 mi SW 6.9 mph - N/A   Partly Cloudy
11:54 PM 57.9 °F 52.0 °F 81% 29.97 in 10.0 mi SW 6.9 mph - N/A   Partly Cloudy